Lawrence, KS

2:16 PM CDT on August 25, 2016 (GMT -0500)
Lawrence Municipal

Weather History for KLWC - November, 2013

Change the Weather History Date:

Friday, November 1, 2013

  Actual Average Record
Temperature  
Mean Temperature 50 °F 50 °F  
Max Temperature 63 °F 63 °F 79 °F (2012)
Min Temperature 37 °F 38 °F 19 °F (2014)
Degree Days  
Heating Degree Days 15 15  
Month to date heating degree days 15 15  
Since 1 July heating degree days 361 379  
Cooling Degree Days 0 0  
Month to date cooling degree days 0 0  
Year to date cooling degree days 1492 1370  
Moisture  
Dew Point 38 °F    
Average Humidity 67    
Maximum Humidity 92    
Minimum Humidity 42    
Precipitation  
Precipitation 0.01 in 0.10 in 2.91 in (1998)
Month to date precipitation 0.01 0.10  
Year to date precipitation 27.68 35.00  
Sea Level Pressure  
Sea Level Pressure 29.85 in    
Wind  
Wind Speed 9 mph (NW)    
Max Wind Speed 33 mph    
Max Gust Speed 41 mph    
Visibility 10 miles    
Events      
T = Trace of Precipitation, MM = Missing Value Source: NWS Daily Summary

Daily Weather History Graph

Daily Weather History Graph

Search for Another Location

Airport or City:

Trip Planner

Search our weather history database for the weather conditions in past years. The results will help you decide how hot, cold, wet, or windy it might be!

Date:

Astronomy

Nov. 01, 2013 Rise Set
Actual Time 7:48 AM CDT 6:19 PM CDT
Civil Twilight 7:20 AM CDT 6:47 PM CDT
Nautical Twilight 6:49 AM CDT 7:18 PM CDT
Astronomical Twilight 6:18 AM CDT 7:50 PM CDT
Moon 5:42 AM CDT (11/1) 5:12 PM CDT (11/1)
Length of Visible Light 11h 26m
Length of Day
10h 31m
Waning Crescent, 4% of the Moon is Illuminated
Nov 1
Waning Crescent
Nov 3
New
Nov 9
First Quarter
Nov 17
Full
Nov 25
Last Quarter

Hourly Weather History & Observations

Time (CDT) Temp. Windchill Dew Point Humidity Pressure Visibility Wind Dir Wind Speed Gust Speed Precip Events Conditions
12:52 AM 37.9 °F - 36.0 °F 93% 29.69 in 10.0 mi Calm Calm - N/A   Clear
1:52 AM 37.9 °F - 35.1 °F 89% 29.71 in 10.0 mi Calm Calm - N/A   Clear
2:52 AM 37.9 °F 35.5 °F 35.1 °F 89% 29.72 in 9.0 mi NW 3.5 mph - N/A   Clear
3:52 AM 43.0 °F 41.3 °F 37.0 °F 80% 29.72 in 10.0 mi NW 3.5 mph - N/A   Clear
4:52 AM 39.9 °F 35.8 °F 36.0 °F 86% 29.73 in 10.0 mi NNW 5.8 mph - N/A   Clear
5:52 AM 41.0 °F 38.0 °F 36.0 °F 82% 29.74 in 10.0 mi NNW 4.6 mph - N/A   Clear
6:52 AM 37.9 °F - 35.1 °F 89% 29.76 in 10.0 mi Calm Calm - N/A   Clear
7:52 AM 37.0 °F 34.5 °F 34.0 °F 89% 29.78 in 10.0 mi WNW 3.5 mph - N/A   Clear
8:52 AM 46.0 °F 40.6 °F 37.9 °F 73% 29.81 in 10.0 mi WNW 11.5 mph - N/A   Clear
9:52 AM 50.0 °F - 41.0 °F 71% 29.83 in 10.0 mi WNW 11.5 mph - N/A   Clear
10:52 AM 54.0 °F - 41.0 °F 62% 29.84 in 10.0 mi WNW 10.4 mph - N/A   Mostly Cloudy
11:52 AM 57.0 °F - 42.1 °F 57% 29.85 in 10.0 mi NW 12.7 mph - N/A   Partly Cloudy
12:52 PM 57.9 °F - 39.9 °F 51% 29.86 in 10.0 mi WNW 13.8 mph - N/A   Overcast
1:52 PM 60.1 °F - 39.9 °F 47% 29.85 in 10.0 mi NW 15.0 mph - N/A   Clear
2:52 PM 61.0 °F - 39.9 °F 46% 29.85 in 10.0 mi NW 19.6 mph 29.9 mph N/A   Scattered Clouds
3:52 PM 62.1 °F - 39.9 °F 44% 29.85 in 10.0 mi NW 13.8 mph - N/A   Partly Cloudy
4:52 PM 61.0 °F - 37.9 °F 42% 29.87 in 10.0 mi NW 13.8 mph - N/A   Partly Cloudy
5:52 PM 57.9 °F - 39.0 °F 49% 29.88 in 10.0 mi NW 11.5 mph - N/A   Partly Cloudy
6:52 PM 53.1 °F - 39.0 °F 59% 29.91 in 10.0 mi West 6.9 mph - N/A   Mostly Cloudy
7:52 PM 54.0 °F - 37.9 °F 55% 29.94 in 10.0 mi West 12.7 mph - N/A   Clear
8:22 PM 54.0 °F - 37.9 °F 55% 29.97 in 10.0 mi NW 24.2 mph 38.0 mph N/A   Mostly Cloudy
8:52 PM 50.0 °F - 41.0 °F 71% 29.97 in 10.0 mi West 11.5 mph - 0.01 in   Mostly Cloudy
9:52 PM 45.0 °F 41.2 °F 39.9 °F 82% 29.99 in 10.0 mi NW 6.9 mph - N/A   Clear
10:52 PM 45.0 °F 41.8 °F 39.0 °F 80% 30.01 in 10.0 mi WNW 5.8 mph - N/A   Clear
11:52 PM 46.9 °F - 37.9 °F 71% 30.02 in 10.0 mi NW 15.0 mph - N/A   Clear